White Mountain, AK

7:56 PM AKST on February 10, 2016 (GMT -0900)
White Mountain

Weather History for PAWM - December, 2012

Change the Weather History Date:

Monday, December 17, 2012

  Actual Average (PAKK) Record (PAKK)
Temperature  
Mean Temperature 5 °F -  
Max Temperature 14 °F 8 °F 30 °F (2008)
Min Temperature -4 °F 0 °F -23 °F (2001)
Degree Days  
Heating Degree Days 60    
Moisture  
Dew Point 4 °F    
Average Humidity 91    
Maximum Humidity 100    
Minimum Humidity 85    
Precipitation  
Precipitation 0.00 in - - ()
Sea Level Pressure  
Sea Level Pressure 29.30 in    
Wind  
Wind Speed 14 mph (SE)    
Max Wind Speed 26 mph    
Max Gust Speed 36 mph    
Visibility 2 miles    
Events Fog , Snow    
Averages and records for this station are not official NWS values.
T = Trace of Precipitation, MM = Missing Value Source: NWS Daily Summary

Daily Weather History Graph

Daily Weather History Graph

Search for Another Location

Airport or City:

Trip Planner

Search our weather history database for the weather conditions in past years. The results will help you decide how hot, cold, wet, or windy it might be!

Date:

Astronomy

Dec. 17, 2012 Rise Set
Actual Time 11:55 AM AKST 3:44 PM AKST
Civil Twilight 10:31 AM AKST 5:08 PM AKST
Nautical Twilight 9:20 AM AKST 6:19 PM AKST
Astronomical Twilight 8:19 AM AKST 7:21 PM AKST
Moon 1:04 PM AKST (12/17) 11:36 PM AKST (12/17)
Length of Visible Light 6h 36m
Length of Day
3h 49m
Waxing Crescent, 26% of the Moon is Illuminated
Dec 17
Waxing Crescent
Dec 19
First Quarter
Dec 28
Full
Jan 4
Last Quarter
Jan 11
New

Hourly Weather History & Observations

Time (AKST) Temp. Windchill Dew Point Humidity Pressure Visibility Wind Dir Wind Speed Gust Speed Precip Events Conditions
12:07 AM -4.0 °F -19.0 °F -7.6 °F 85% 29.58 in 1.8 mi NE 8.1 mph - 0.00 in Snow Light Snow
12:38 AM -2.2 °F -15.6 °F -5.8 °F 85% 29.55 in 2.0 mi NNE 6.9 mph - 0.00 in Snow Light Snow
12:58 AM -2.0 °F -15.4 °F -5.1 °F 87% 29.59 in 3.0 mi North 6.9 mph - 0.00 in Snow Light Snow
1:06 AM -2.2 °F -16.8 °F -5.8 °F 85% 29.55 in 2.0 mi NNW 8.1 mph - 0.00 in Snow Light Snow
1:10 AM -2.2 °F -16.8 °F -5.8 °F 85% 29.54 in 1.5 mi NNW 8.1 mph - 0.00 in Snow Light Snow
1:39 AM -2.2 °F -15.6 °F -5.8 °F 85% 29.52 in 1.5 mi NNE 6.9 mph - 0.00 in Snow Light Snow
1:47 AM -0.4 °F -14.7 °F -4.0 °F 85% 29.51 in 1.8 mi NE 8.1 mph - 0.00 in Snow Light Snow
1:58 AM -0.9 °F -16.4 °F -4.0 °F 87% 29.54 in 1.8 mi East 9.2 mph - 0.00 in Snow Light Snow
2:04 AM -0.4 °F -15.7 °F -2.2 °F 92% 29.50 in 1.8 mi East 9.2 mph - 0.00 in Snow Light Snow
2:12 AM 1.4 °F -15.3 °F -2.2 °F 85% 29.48 in 1.5 mi East 11.5 mph - 0.00 in Snow Light Snow
2:36 AM 3.2 °F -11.3 °F -0.4 °F 85% 29.47 in 1.0 mi East 9.2 mph - 0.00 in Snow Light Snow
2:41 AM 3.2 °F -13.1 °F 1.4 °F 92% 29.47 in 0.8 mi East 11.5 mph - 0.00 in Snow Light Snow
2:51 AM 3.2 °F -14.6 °F 1.4 °F 92% 29.45 in 0.5 mi East 13.8 mph - 0.00 in Fog , Snow Snow
3:21 AM 8.6 °F -9.5 °F 6.8 °F 92% 29.43 in 0.8 mi East 17.3 mph 24.2 mph 0.00 in Snow Light Snow
3:27 AM 8.6 °F -8.9 °F 6.8 °F 92% 29.42 in 1.0 mi ESE 16.1 mph 24.2 mph 0.00 in Snow Light Snow
3:30 AM 8.6 °F -8.9 °F 6.8 °F 92% 29.42 in 1.2 mi ESE 16.1 mph 24.2 mph 0.00 in Snow Light Snow
3:40 AM 8.6 °F -8.3 °F 6.8 °F 92% 29.41 in 1.0 mi ESE 15.0 mph 24.2 mph 0.00 in Snow Light Snow
3:57 AM 9.0 °F -9.0 °F 7.0 °F 92% 29.43 in 1.2 mi ESE 17.3 mph 26.5 mph 0.00 in Snow Light Snow
4:10 AM 8.6 °F -9.5 °F 6.8 °F 92% 29.39 in 1.8 mi ESE 17.3 mph 25.3 mph 0.00 in Snow Light Snow
4:53 AM 8.6 °F -9.5 °F 6.8 °F 92% 29.36 in 2.0 mi ESE 17.3 mph 25.3 mph 0.00 in Snow Light Snow
4:58 AM 9.0 °F -7.9 °F 7.0 °F 92% 29.40 in 2.5 mi ESE 15.0 mph 25.3 mph 0.00 in Snow Light Snow
5:04 AM 8.6 °F -8.3 °F 6.8 °F 92% 29.36 in 3.0 mi East 15.0 mph - 0.00 in Snow Light Snow
5:58 AM 8.1 °F -10.7 °F 6.1 °F 92% 29.36 in 4.0 mi ESE 18.4 mph 24.2 mph 0.00 in Snow Light Snow
6:10 AM 8.6 °F -9.5 °F 6.8 °F 92% 29.31 in 2.5 mi ESE 17.3 mph 27.6 mph 0.00 in Snow Light Snow
6:24 AM 8.6 °F -11.4 °F 6.8 °F 92% 29.31 in 2.0 mi ESE 21.9 mph 28.8 mph 0.00 in Snow Light Snow
6:45 AM 8.6 °F -11.4 °F 6.8 °F 92% 29.30 in 1.8 mi ESE 21.9 mph 28.8 mph 0.00 in Snow Light Snow
6:57 AM 8.1 °F -10.7 °F 6.1 °F 92% 29.33 in 1.0 mi ESE 18.4 mph 27.6 mph 0.00 in Snow Light Snow
7:04 AM 8.6 °F -10.5 °F 6.8 °F 92% 29.29 in 1.0 mi ESE 19.6 mph 28.8 mph 0.00 in Snow Light Snow
7:12 AM 8.6 °F -11.4 °F 6.8 °F 92% 29.29 in 1.2 mi ESE 21.9 mph 28.8 mph 0.00 in Snow Light Snow
7:33 AM 8.6 °F -11.9 °F 6.8 °F 92% 29.28 in 2.5 mi ESE 23.0 mph 29.9 mph 0.00 in Snow Light Snow
7:58 AM 8.1 °F -11.2 °F 6.1 °F 92% 29.31 in 3.0 mi ESE 19.6 mph 28.8 mph 0.00 in Snow Light Snow
8:17 AM 8.6 °F -11.9 °F 6.8 °F 92% 29.26 in 3.0 mi ESE 23.0 mph 28.8 mph 0.00 in Snow Light Snow
8:26 AM 8.6 °F -10.5 °F 6.8 °F 92% 29.26 in 2.5 mi ESE 19.6 mph 28.8 mph 0.00 in Snow Light Snow
8:58 AM 8.1 °F -13.0 °F 6.1 °F 92% 29.27 in 2.5 mi ESE 24.2 mph 31.1 mph 0.00 in Snow Light Snow
9:24 AM 8.6 °F -11.4 °F 6.8 °F 92% 29.22 in 1.8 mi ESE 21.9 mph 32.2 mph 0.00 in Snow Light Snow
9:31 AM 8.6 °F -11.9 °F 6.8 °F 92% 29.22 in 2.5 mi ESE 23.0 mph 32.2 mph 0.00 in Snow Light Snow
9:37 AM 8.6 °F -11.9 °F 8.6 °F 100% 29.22 in 3.0 mi ESE 23.0 mph 32.2 mph 0.00 in Snow Light Snow
9:43 AM 8.6 °F -11.9 °F 6.8 °F 92% 29.21 in 2.5 mi ESE 23.0 mph 31.1 mph 0.00 in Snow Light Snow
9:51 AM 10.4 °F -9.5 °F 8.6 °F 92% 29.21 in 1.5 mi ESE 23.0 mph 34.5 mph 0.00 in Snow Light Snow
9:58 AM 10.0 °F -10.0 °F 8.1 °F 92% 29.24 in 1.8 mi ESE 23.0 mph 34.5 mph 0.00 in Snow Light Snow
10:03 AM 10.4 °F -10.3 °F 8.6 °F 92% 29.20 in 2.5 mi ESE 25.3 mph 31.1 mph 0.00 in Snow Light Snow
10:26 AM 10.4 °F -9.9 °F 8.6 °F 92% 29.19 in 1.8 mi ESE 24.2 mph 31.1 mph 0.00 in Snow Light Snow
10:42 AM 10.4 °F -9.1 °F 8.6 °F 92% 29.19 in 1.0 mi ESE 21.9 mph 29.9 mph 0.00 in Snow Light Snow
10:49 AM 10.4 °F -9.5 °F 8.6 °F 92% 29.18 in 1.5 mi ESE 23.0 mph 29.9 mph 0.00 in Snow Light Snow
10:58 AM 10.9 °F -9.9 °F 10.0 °F 96% 29.21 in 1.5 mi ESE 26.5 mph 34.5 mph 0.00 in Snow Light Snow
11:11 AM 12.2 °F -7.1 °F 10.4 °F 92% 29.17 in 2.0 mi ESE 23.0 mph 34.5 mph 0.00 in Snow Light Snow
11:37 AM 10.4 °F -9.9 °F 10.4 °F 100% 29.17 in 1.0 mi SE 24.2 mph 34.5 mph 0.00 in Snow Light Snow
11:46 AM 12.2 °F -8.2 °F 10.4 °F 92% 29.16 in 0.8 mi ESE 26.5 mph 34.5 mph 0.00 in Snow Light Snow
11:56 AM 12.2 °F -8.2 °F 10.4 °F 92% 29.15 in 0.5 mi SE 26.5 mph 33.4 mph 0.00 in Fog , Snow Snow
11:58 AM 12.0 °F -8.5 °F 10.9 °F 95% 29.19 in 0.5 mi SE 26.5 mph 34.5 mph 0.00 in Fog , Snow Snow
12:07 PM 12.2 °F -8.2 °F 10.4 °F 92% 29.15 in 0.2 mi SE 26.5 mph 35.7 mph 0.00 in Fog , Snow Snow
12:50 PM 14.0 °F -4.7 °F 12.2 °F 93% 29.14 in 0.8 mi South 23.0 mph 31.1 mph 0.00 in Snow Light Snow
12:54 PM 14.0 °F -3.4 °F 12.2 °F 93% 29.14 in 1.2 mi South 19.6 mph 31.1 mph 0.00 in Snow Light Snow
12:58 PM 14.0 °F -5.5 °F 12.0 °F 92% 29.17 in 1.5 mi South 25.3 mph 31.1 mph 0.00 in Snow Light Snow
3:58 PM 9.0 °F -11.0 °F 7.0 °F 92% 29.19 in 1.8 mi South 21.9 mph 26.5 mph 0.00 in Snow Light Snow
4:05 PM 8.6 °F -10.5 °F 6.8 °F 92% 29.15 in 2.0 mi South 19.6 mph 26.5 mph 0.00 in Snow Light Snow
4:45 PM 8.6 °F -9.5 °F 6.8 °F 92% 29.17 in 4.0 mi South 17.3 mph 26.5 mph 0.00 in Snow Light Snow
4:58 PM 9.0 °F -10.0 °F 7.0 °F 92% 29.21 in 4.0 mi SSW 19.6 mph 29.9 mph 0.00 in Snow Light Snow
5:23 PM 8.6 °F -5.5 °F 6.8 °F 92% 29.20 in 2.5 mi South 10.4 mph 17.3 mph 0.00 in Snow Light Snow
5:41 PM 8.6 °F -4.7 °F 6.8 °F 92% 29.21 in 1.8 mi SSW 9.2 mph - 0.00 in Snow Light Snow
5:58 PM 8.1 °F -6.2 °F 7.0 °F 95% 29.25 in 1.8 mi South 10.4 mph - 0.00 in Snow Light Snow
6:04 PM 8.6 °F -6.3 °F 6.8 °F 92% 29.21 in 2.0 mi SSW 11.5 mph - 0.00 in Snow Light Snow
6:15 PM 6.8 °F -8.6 °F 6.8 °F 100% 29.21 in 3.0 mi SSW 11.5 mph - 0.00 in Snow Light Snow
6:28 PM 6.8 °F -4.8 °F 5.0 °F 92% 29.22 in 3.0 mi South 6.9 mph - 0.00 in Snow Light Snow
6:48 PM 6.8 °F -7.8 °F 3.2 °F 85% 29.23 in 2.5 mi SSW 10.4 mph - 0.00 in Snow Light Snow
6:54 PM 5.0 °F -9.1 °F 3.2 °F 92% 29.23 in 3.0 mi SSW 9.2 mph - 0.00 in Snow Light Snow
6:58 PM 5.0 °F -6.9 °F 3.0 °F 92% 29.26 in 4.0 mi South 6.9 mph - 0.00 in Snow Light Snow
7:10 PM 5.0 °F -8.1 °F 3.2 °F 92% 29.24 in 4.0 mi South 8.1 mph - 0.00 in Snow Light Snow
7:21 PM 3.2 °F -11.3 °F 1.4 °F 92% 29.24 in 3.0 mi South 9.2 mph - 0.00 in Snow Light Snow
7:30 PM 3.2 °F -10.3 °F 1.4 °F 92% 29.25 in 2.0 mi South 8.1 mph - 0.00 in Snow Light Snow
7:48 PM 3.2 °F -10.3 °F 1.4 °F 92% 29.25 in 2.5 mi South 8.1 mph - 0.00 in Snow Light Snow
7:58 PM 3.0 °F -9.3 °F 1.0 °F 91% 29.29 in 4.0 mi South 6.9 mph - 0.00 in Snow Light Snow
8:23 PM 1.4 °F -9.9 °F -0.4 °F 92% 29.27 in 5.0 mi SSE 5.8 mph - 0.00 in Snow Light Snow
8:45 PM -0.4 °F -13.4 °F -2.2 °F 92% 29.27 in 6.0 mi SSE 6.9 mph - 0.00 in Snow Light Snow
8:58 PM 1.0 °F -11.7 °F -2.0 °F 87% 29.32 in 6.0 mi SSE 6.9 mph - 0.00 in Snow Light Snow
9:38 PM -0.4 °F - -2.2 °F 92% 29.30 in 6.0 mi Calm Calm - 0.00 in Snow Light Snow
9:58 PM 1.0 °F - -2.0 °F 87% 29.34 in 4.0 mi Calm Calm - 0.00 in   Overcast
10:31 PM 1.4 °F -9.9 °F -2.2 °F 85% 29.32 in 6.0 mi Variable 5.8 mph - 0.00 in Snow Light Snow
10:46 PM 1.4 °F -18.2 °F -2.2 °F 85% 29.32 in 6.0 mi NNW 16.1 mph 19.6 mph 0.00 in   Overcast
10:58 PM 1.0 °F -18.0 °F -2.0 °F 87% 29.36 in 6.0 mi NNW 15.0 mph - 0.00 in   Overcast
11:22 PM -0.4 °F -20.5 °F -2.2 °F 92% 29.33 in 4.0 mi NNW 16.1 mph - N/A   Overcast
11:38 PM -0.4 °F -19.9 °F -4.0 °F 85% 29.34 in 6.0 mi NNW 15.0 mph - N/A   Mostly Cloudy
11:58 PM -2.0 °F -21.9 °F -5.1 °F 87% 29.39 in 8.0 mi NNW 15.0 mph - N/A   Scattered Clouds